RH
14 12 10 10 11 12 18 27 24 20 20 14 9 4 4 6 6 5 9 10 11 12 12 13 15 18 17 19 18 17 14 14 15 15 15 16 19 27 32 25 21 22 24 26
17 16 14 11 12 15 14 13 21 19 16 12 8 6 4 4 5 8 11 14 14 14 16 16 18 19 20 22 20 12 10 11 14 18 19 18 20 35 31 44 38 24 24 28
18 22 22 17 14 22 27 26 14 15 17 20 10 6 7 12 13 13 19 29 29 23 16 17 19 20 21 20 17 13 12 12 16 19 19 20 23 36 25 26 46 43 31 27
18 13 21 35 31 31 31 21 17 19 23 16 17 20 12 20 16 23 30 30 29 25 21 23 26 27 21 16 13 12 16 21 22 21 20 23 29 38 36 21 28 44 40 38
32 27 26 24 26 26 25 22 31 26 20 15 14 17 9 21 23 19 25 24 17 18 24 29 25 19 16 15 14 14 21 24 24 24 24 33 40 41 42 22 20 30 30 18
28 32 33 34 32 37 30 38 38 24 19 39 9 11 22 28 30 29 26 22 21 26 28 30 24 20 16 14 16 19 21 27 25 25 33 42 42 43 45 33 17 14 17 21
39 32 32 35 42 52 51 39 56 81 68 50 35 36 26 33 30 28 26 28 29 31 35 29 22 20 19 17 21 24 29 28 27 34 41 40 43 54 59 38 20 23 25 26
53 42 39 39 40 42 44 38 35 47 95 76 48 41 27 31 29 32 34 36 36 38 34 25 24 24 20 20 27 33 31 29 40 43 43 46 59 76 64 40 35 36 34 36
60 56 50 47 41 62 58 65 42 49 43 48 41 43 40 36 34 35 36 37 39 36 32 28 29 28 23 29 34 36 32 34 44 49 55 66 87 83 61 49 56 54 58 56
61 54 55 53 53 58 62 50 51 46 74 80 52 43 29 32 36 38 38 35 33 34 32 34 36 26 29 33 35 36 33 44 49 60 66 75 72 56 60 67 71 71 69 73
58 59 57 60 44 37 62 57 50 44 60 85 81 41 39 36 34 38 45 39 33 38 36 40 39 30 35 34 38 37 44 50 59 66 71 74 70 60 66 79 81 80 75 74
71 64 76 61 54 50 61 50 47 43 54 62 71 41 33 38 43 52 57 42 41 49 50 46 33 39 40 40 40 41 53 55 62 69 72 73 74 74 77 81 82 73 58 54
74 77 71 65 64 61 61 61 56 52 55 64 75 51 42 43 46 46 58 53 55 53 51 40 40 41 41 43 40 50 59 63 65 61 63 75 82 89 92 77 60 62 86 99
78 71 73 69 68 71 67 60 51 60 62 58 58 46 46 47 48 60 62 54 53 52 52 43 46 41 40 44 48 59 68 71 62 63 80 94 100 100 89 84 77 85 94 87
88 84 75 66 62 71 73 62 64 66 62 65 51 50 45 47 56 64 56 57 51 58 47 50 47 42 41 45 59 69 74 70 64 82 98 99 100 94 98 91 80 83 85 94
88 91 81 80 74 68 69 66 68 63 63 70 66 56 48 62 70 68 60 66 64 52 48 51 48 46 46 50 66 74 76 69 72 92 96 100 97 88 82 84 83 84 100 99
84 83 85 90 80 80 87 72 56 52 50 47 58 53 60 69 73 69 72 70 66 56 50 53 48 46 47 62 72 80 71 76 73 86 98 94 89 79 95 92 98 98 96 95
84 94 99 93 86 93 64 62 57 59 56 64 83 80 64 68 76 77 74 72 62 61 56 51 47 46 49 76 79 82 71 80 75 84 98 97 97 95 92 91 100 94 99 92
75 100 97 94 98 71 56 59 59 57 56 55 54 57 61 64 69 84 76 67 66 59 36 25 37 48 52 88 84 83 76 76 71 86 99 94 80 100 93 89 96 89 90 100
68 94 98 95 95 92 68 65 58 56 62 62 63 60 65 75 80 77 70 74 64 51 30 30 30 51 59 94 89 82 81 68 79 86 100 100 92 99 95 98 98 86 86 95
67 94 88 96 95 80 72 69 63 60 62 59 69 73 70 74 71 68 67 66 66 62 40 26 27 54 74 98 89 88 81 70 83 93 97 99 100 100 100 100 100 100 99 94
69 74 90 89 99 89 80 69 72 70 67 70 75 81 78 76 74 72 73 69 65 52 22 31 37 58 98 100 93 90 84 75 83 91 95 98 92 99 98 99 100 100 100 100
76 72 84 83 90 91 96 92 94 93 99 99 99 91 88 87 83 83 80 72 68 59 24 36 38 62 100 100 97 90 89 77 84 90 100 97 97 100 92 92 90 97 96 97
70 72 73 71 65 66 86 90 89 76 86 92 93 94 85 85 79 71 74 74 64 50 32 29 36 63 98 98 99 93 98 83 83 93 96 100 100 98 99 97 93 89 91 95
43 40 32 35 46 54 56 55 62 68 71 65 66 67 76 69 69 72 65 60 58 50 31 28 36 63 94 97 98 96 97 95 84 87 92 92 92 94 94 93 92 92 88 86
26 20 26 27 26 29 29 18 31 32 45 42 49 57 56 58 61 61 54 48 42 33 30 27 35 63 95 98 97 100 98 98 92 85 88 87 86 84 84 86 89 86 86 85
Wind_Speed
15 17 22 16 16 15 8 8 9 12 13 12 13 14 9 13 19 18 17 16 14 11 11 12 13 14 15 16 18 20 22 24 26 28 29 30 30 32 34 33 30 29 31 34
15 19 14 18 16 15 17 18 16 15 17 16 17 17 15 17 18 17 14 15 14 12 13 15 17 16 17 19 23 25 27 28 29 32 34 35 35 34 33 33 34 33 33 34
14 11 11 15 15 15 16 17 17 17 15 14 17 18 12 9 10 11 14 15 17 16 18 18 17 18 21 25 27 31 33 33 33 34 35 37 37 36 31 30 32 35 36 36
13 17 17 13 13 15 20 18 18 18 15 7 9 5 8 9 13 15 18 21 22 21 18 17 17 19 23 26 29 31 33 33 34 36 37 39 38 35 32 33 29 30 33 36
10 12 13 17 18 17 17 17 16 16 15 13 14 7 9 15 18 20 23 23 21 22 18 16 17 19 25 31 33 32 33 34 34 36 37 39 38 37 34 32 31 31 27 28
18 18 14 15 15 15 16 13 11 10 8 4 19 15 9 20 19 19 20 21 21 22 19 18 21 26 30 33 32 33 34 35 35 36 37 38 39 39 37 33 31 29 28 29
8 13 18 18 15 15 17 12 1 2 1 5 7 12 8 19 16 19 21 22 23 23 21 21 23 30 34 32 31 32 34 35 36 36 37 38 37 36 35 32 31 30 29 30
3 4 6 12 20 15 19 19 7 7 4 4 10 8 5 13 20 25 25 25 25 26 21 21 30 36 35 33 31 33 35 35 35 37 38 35 30 28 29 29 30 29 28 29
2 5 5 7 14 15 11 21 17 2 2 2 7 5 9 17 20 24 26 26 25 22 23 28 35 40 34 31 31 35 37 37 38 38 35 29 26 26 27 27 27 26 28 31
4 5 8 9 13 19 13 16 9 10 3 4 5 9 11 21 23 25 21 22 25 27 30 32 40 39 31 32 33 36 38 40 38 32 29 27 24 23 24 26 28 32 34 35
11 10 7 10 8 18 21 16 9 7 4 5 1 3 10 16 18 21 14 18 25 29 32 38 43 32 31 33 36 38 38 36 27 26 27 27 25 25 25 27 31 33 34 34
7 6 7 10 9 9 13 21 17 6 5 3 1 4 7 6 20 15 9 16 25 30 35 41 31 28 31 34 36 36 36 29 25 26 26 25 24 25 27 28 31 30 28 29
6 6 4 3 8 11 15 18 17 16 10 10 6 3 4 7 20 21 15 20 28 35 39 30 25 28 32 34 35 35 32 27 28 28 25 22 23 19 20 21 22 23 18 18
16 14 11 8 3 5 7 9 18 21 15 16 22 12 11 10 18 19 25 29 35 39 32 23 26 29 33 35 35 34 30 28 26 24 19 13 8 15 16 17 16 12 13 15
13 18 22 25 26 19 19 21 16 17 22 17 26 27 21 23 28 31 34 38 37 31 23 23 26 30 33 34 33 30 28 25 22 16 12 6 13 12 13 15 14 15 14 11
14 17 22 26 26 29 32 33 29 28 29 32 32 37 30 29 31 33 37 28 28 23 22 23 26 31 33 32 31 27 23 23 20 15 6 8 12 12 13 14 15 12 2 1
20 17 15 14 17 20 20 27 33 34 36 37 37 36 25 23 16 25 24 25 25 23 24 24 27 29 32 31 28 23 21 23 19 13 5 11 13 10 13 12 6 7 4 4
22 18 14 14 16 8 14 10 13 17 20 19 24 24 21 18 25 26 23 23 20 19 21 24 23 26 31 28 24 21 21 22 19 14 9 9 10 6 10 9 6 9 9 3
22 19 11 7 9 18 19 14 16 17 18 17 15 17 19 21 24 19 22 19 15 18 19 22 22 25 29 25 22 21 22 22 18 9 8 10 4 5 9 8 8 9 9 10
13 19 22 9 6 4 0 3 8 8 10 13 15 18 20 20 20 18 17 13 16 18 20 24 23 24 26 24 21 19 22 19 14 6 7 6 3 1 8 5 8 13 12 8
9 13 22 25 15 12 17 15 18 14 11 16 17 17 19 20 18 15 15 15 17 19 23 24 23 22 23 23 19 16 20 17 11 6 4 4 5 3 3 6 2 6 10 10
18 9 11 17 13 13 14 14 12 10 12 15 18 20 21 19 17 17 17 16 18 18 23 19 20 21 20 21 17 15 15 15 12 6 1 4 6 4 0 3 3 7 8 9
9 13 13 12 10 12 7 5 9 10 14 17 20 24 23 26 25 23 22 21 19 20 24 21 20 19 18 19 15 13 11 11 12 7 3 5 6 5 3 2 2 4 7 7
24 20 26 28 34 37 27 27 21 19 20 23 26 26 25 27 30 31 30 28 27 24 24 21 20 19 15 17 13 12 9 8 9 9 6 2 2 3 1 1 3 4 6 9
27 29 34 42 46 44 43 42 39 35 32 34 32 28 33 34 35 37 33 27 22 20 25 21 19 18 13 16 13 10 8 4 4 7 9 9 10 10 10 10 10 10 9 10
29 31 35 40 34 35 39 42 49 50 49 47 44 42 41 42 42 42 41 35 30 27 29 21 17 16 12 13 10 9 6 3 1 3 6 7 9 11 12 13 11 10 10 10
Wind_Direction
240 236 239 247 251 244 223 239 238 238 251 264 271 273 256 246 264 274 273 257 239 243 260 271 271 274 285 299 306 306 303 302 302 300 300 301 298 293 287 280 271 263 264 269
243 245 242 237 235 235 239 242 241 252 258 264 272 276 279 267 261 256 235 231 247 256 258 267 272 282 290 295 300 303 308 307 304 304 303 302 300 298 291 279 271 265 260 260
251 238 236 237 241 243 242 247 246 244 258 267 279 285 279 260 235 214 207 228 247 257 262 277 282 286 298 307 306 307 305 304 304 302 300 301 300 300 294 287 274 265 266 262
263 254 246 242 231 238 243 243 239 241 256 259 267 282 253 244 207 206 212 224 238 251 264 271 277 290 300 301 302 303 303 302 302 302 300 300 298 297 291 286 279 264 264 267
231 249 258 249 249 241 236 233 237 245 248 255 250 250 269 226 210 202 217 231 245 254 264 269 283 293 301 307 306 303 299 300 300 298 296 297 295 292 292 283 274 266 258 260
244 244 241 244 241 231 234 232 227 227 234 255 249 227 225 207 224 215 219 235 248 259 265 279 291 302 310 309 302 297 297 300 299 299 296 295 293 289 285 280 272 265 264 265
273 257 250 250 241 231 223 214 92 4 229 221 218 206 238 212 225 229 236 246 256 265 269 281 293 306 314 309 302 301 302 302 303 301 298 296 292 287 282 277 271 267 267 267
303 290 244 239 232 237 225 211 197 197 193 211 184 226 223 215 207 216 232 244 253 259 275 283 305 315 314 307 305 305 306 308 306 305 303 297 290 281 276 274 273 273 271 269
276 260 262 250 230 213 214 211 219 241 207 133 195 191 184 195 205 220 230 242 255 272 288 297 310 317 309 306 308 313 314 311 310 308 305 297 286 279 274 272 272 271 273 270
232 285 271 269 232 218 217 200 201 206 149 219 233 196 209 211 222 229 242 258 271 284 294 305 315 312 304 309 311 317 317 315 312 308 308 299 290 288 279 282 287 282 279 275
251 240 258 269 253 231 213 204 201 198 210 167 177 208 206 236 233 233 247 269 275 287 299 308 312 304 311 313 317 320 319 316 311 308 307 301 296 288 282 283 285 285 282 278
241 249 254 276 263 241 229 230 227 216 197 189 147 252 240 217 222 218 256 269 286 298 304 308 305 311 315 316 320 322 319 319 315 310 306 305 295 283 282 283 286 288 279 273
253 237 249 227 236 230 227 231 228 230 220 204 161 241 162 206 221 237 278 277 291 300 309 303 308 316 318 320 325 323 320 319 320 319 314 302 296 298 297 299 293 284 283 283
253 244 234 221 172 294 271 252 236 235 232 222 221 232 208 209 252 271 294 280 294 306 304 297 311 322 322 326 328 322 325 324 325 322 321 326 329 308 318 311 305 284 271 276
268 260 262 259 266 274 272 263 249 238 244 248 252 255 259 253 255 282 284 289 296 299 290 301 313 324 325 332 325 327 328 333 330 325 325 322 306 331 337 326 339 306 278 257
266 273 282 282 276 267 268 267 265 261 257 256 262 267 272 269 267 276 278 285 290 287 293 301 316 326 330 332 328 333 337 340 338 332 311 299 317 314 321 328 341 8 241 231
276 279 287 284 291 278 268 254 257 265 267 267 261 270 278 277 272 266 268 280 282 286 296 301 311 322 333 334 331 337 338 341 338 331 327 312 313 333 348 348 357 14 0 297
265 272 266 273 277 259 262 252 255 256 264 272 266 267 269 254 255 259 268 277 282 290 307 313 316 324 336 336 333 337 335 337 332 325 299 308 331 336 351 18 19 15 29 96
249 239 248 249 235 267 262 248 265 265 273 271 265 259 253 248 243 243 265 273 279 301 315 324 322 331 335 336 331 334 333 339 329 310 290 309 335 340 346 352 39 45 61 88
227 228 236 246 265 255 37 345 324 306 261 268 255 247 236 234 239 250 253 252 275 295 306 327 327 331 332 335 331 336 340 342 334 303 268 289 313 292 352 55 58 75 97 100
210 218 231 246 251 263 255 265 289 276 259 257 251 241 238 234 230 225 235 253 283 299 314 319 323 329 330 334 331 329 343 347 346 333 235 224 320 328 58 71 54 83 92 95
250 235 228 236 239 256 255 239 243 253 243 251 253 245 240 241 238 242 251 276 291 302 320 322 323 327 329 332 330 326 344 353 359 11 108 211 294 5 328 48 104 113 115 123
232 216 228 227 228 191 185 276 250 205 219 234 245 250 251 255 253 256 261 275 285 294 322 320 322 323 323 329 327 330 346 358 12 35 162 210 245 284 297 287 107 135 113 116
250 236 260 264 251 247 240 260 263 260 257 267 276 277 268 266 268 267 268 271 281 286 306 312 314 317 315 326 322 331 329 358 29 44 61 85 234 280 46 122 103 109 121 111
271 274 266 264 262 265 255 254 260 251 250 262 271 267 265 266 267 271 271 273 277 280 301 301 304 308 303 320 310 321 320 338 40 70 81 96 105 111 103 96 97 93 95 101
286 284 281 282 284 276 271 254 249 255 251 253 259 259 258 261 264 268 272 275 279 284 295 284 292 297 293 305 305 310 310 276 99 117 108 112 118 117 114 107 90 92 100 102